AirNav   Bose ProFlight Aviation Headset
 
 1238 users online  

KREI Redlands Municipal Airport
Redlands, California, USA

GOING TO REDLANDS?


FAA INFORMATION EFFECTIVE 13 SEPTEMBER 2018

Location

FAA Identifier: REI
Lat/Long: 34-05-06.9000N / 117-08-47.0000W
34-05.115000N / 117-08.783333W
34.0852500 / -117.1463889
(estimated)
Elevation: 1574.4 ft. / 479.9 m (surveyed)
Variation: 14E (1995)
From city: 2 miles NE of REDLANDS, CA
Time zone: UTC -7 (UTC -8 during Standard Time)
Zip code: 92374

Airport Operations

Airport use: Open to the public
Activation date: 02/1947
Control tower: no
ARTCC: LOS ANGELES CENTER
FSS: RIVERSIDE FLIGHT SERVICE STATION
NOTAMs facility: RAL (NOTAM-D service available)
Attendance: 0800-1700
Pattern altitude: 2503.4 ft. MSL
Wind indicator: lighted
Segmented circle: yes
Lights: ACTVT MIRL RY 08/26, REIL RYS 08 & RY 26, PAPI RY 08 - CTAF.
Beacon: white-green (lighted land airport)
Operates sunset to sunrise.

Airport Communications

CTAF/UNICOM: 123.05
SOCAL APPROACH: 127.0(NORTH-NE)
SOCAL DEPARTURE: 127.0(NORTH-NE)
CLASS C IC: 127.0(NORTH-NE)
WX AWOS-3 at SBD (4 nm W): 124.175 (909-382-0067)
WX ASOS at RAL (17 nm SW): PHONE 951-352-4392
WX AWOS-3 at BNG (18 nm SE): 134.625 (951-922-4674)
WX AWOS-3 at L35 (18 nm NE): 135.925 (909-585-4033)
  • AUTOMATED UNICOM.
  • FOR CLNC DEL CALL SOCAL APCH (800) 448-3724.

Nearby radio navigation aids

VOR radial/distance  VOR name  Freq  Var
RALr049/(17.0)RIVERSIDE VOR112.4014E
HDFr352/(18.6)HOMELAND VOR113.4014E
PDZr047/21.5PARADISE VORTAC112.2015E
POMr074/31.8POMONA VORTAC110.4015E
VCVr144/32.8VICTORVILLE VOR/DME109.0514E
PSPr277/37.9PALM SPRINGS VORTAC115.5013E
ELBr036/38.1EL TORO VOR/DME117.2014E

 
NDB name  Hdg/Dist  Freq  Var  ID
PETIS067/11.139714ESB ... -...

Airport Services

Fuel available: 100LL
SELF SERVE 100LL FUEL AVAIL. 24-7.
Parking: tiedowns
Airframe service: MAJOR
Powerplant service: MAJOR
Bottled oxygen: NONE
Bulk oxygen: HIGH/LOW

Runway Information

Runway 8/26

Dimensions: 4504 x 75 ft. / 1373 x 23 m
Surface: asphalt, in good condition
Weight bearing capacity: 
Single wheel: 12.5
Runway edge lights: medium intensity
RUNWAY 8  RUNWAY 26
Latitude: 34-05.113665N34-05.118037N
Longitude: 117-09.228998W117-08.336917W
Elevation: 1471.7 ft.1574.4 ft.
Gradient: 2.1%2.1%
Traffic pattern: leftright
Runway heading: 076 magnetic, 090 true256 magnetic, 270 true
Markings: basic, in good conditionbasic, in fair condition
Visual slope indicator: 2-light PAPI on left (3.00 degrees glide path)
Runway end identifier lights: yesyes
Touchdown point: yes, no lightsyes, no lights
Obstructions: 4 ft. fence, 300 ft. from runway, 125 ft. left of centerline, 25:1 slope to clear60 ft. trees, 1500 ft. from runway, 120 ft. left of centerline, 22:1 slope to clear

Airport Ownership and Management from official FAA records

Ownership: Publicly-owned
Owner: CITY OF REDLANDS
35 CAJON STREET, SUITE 15A
REDLANDS, CA 92374
Phone 909-798-7668
Manager: RICK CROSS
35 CAJON STREET, SUITE 222
REDLANDS, CA 92373
Phone 909-798-7655
MAIN NO: 909-798-7655

Airport Operational Statistics

Aircraft based on the field: 230
Single engine airplanes: 205
Multi engine airplanes: 10
Jet airplanes: 2
Helicopters: 10
Gliders airplanes: 2
Ultralights: 1
    
Aircraft operations: avg 120/day *
75% local general aviation
25% transient general aviation
* for 12-month period ending 31 December 2016

Instrument Procedures

NOTE: All procedures below are presented as PDF files. If you need a reader for these files, you should download the free Adobe Reader.

NOT FOR NAVIGATION. Please procure official charts for flight.
FAA instrument procedures published for use from 13 September 2018 at 0901Z to 11 October 2018 at 0900Z.

 
IAPs - Instrument Approach Procedures
RNAV (GPS)-A   download (329KB)
NOTE: Special Take-Off Minimums/Departure Procedures apply   download (132KB)

Other nearby airports with instrument procedures:

KSBD - San Bernardino International Airport (4 nm W)
KRIV - March Air Reserve Base (13 nm SW)
KRIR - Flabob Airport (14 nm SW)
KRAL - Riverside Municipal Airport (17 nm SW)
L35 - Big Bear City Airport (18 nm NE)
 
Loc | Ops | Rwys | IFR | FBO | Links
Com | Nav | Svcs | Stats | Notes

San Bernardino International Airport Authority
 
Area around KREI (Redlands Municipal Airport)
 
Road maps at: MapQuest Bing Google
 
Aerial photo
WARNING: Photo may not be current or correct
Aerial photo of KREI (Redlands Municipal Airport)
Photo courtesy of Steve Bastuba of Skyview Aerial Photo, Inc.
Photo taken 31-Oct-2013
looking west.

Do you have a better or more recent aerial photo of Redlands Municipal Airport that you would like to share? If so, please send us your photo.

 
Sectional chart

 
Airport distance calculator
Flying to Redlands Municipal Airport? Find the distance to fly.

From to KREI

Sunrise and sunset
Times for 24-Sep-2018
 Local
(UTC-7)
 Zulu
(UTC)
Morning civil twilight06:1413:14
Sunrise06:3913:39
Sunset18:4201:42
Evening civil twilight19:0702:07

Current date and time
Zulu (UTC)  24-Sep-2018 21:34:14
Local (UTC-7)  24-Sep-2018 14:34:14
 
METAR
KREI SuperAWOS
242055Z AUTO 22007KT 10SM 27/10 A2988
KSBD 
4nm W 
241850Z 29005KT 3SM HZ SKC 26/12 A2990
KRIV 
14nm SW 
242058Z AUTO 33009KT 10SM CLR 27/14 A2987 RMK AO2 SLP104 T02680142 57016 PNO $
KRAL 
17nm SW 
242053Z 27008G15KT 10SM CLR 27/13 A2985 RMK AO2 SLP094 T02720133 58020
KL35 
18nm NE 
242055Z AUTO 27003KT 10SM CLR 22/02 A3012 RMK AO2
TAF
KSBD 
4nm W 
241726Z 2418/2518 26006KT 4SM HZ SKC FM242100 26011KT 6SM HZ SKC FM250400 VRB04KT P6SM SKC FM251400 VRB03KT 4SM HZ SKC
KRIV 
14nm SW 
242000Z 2420/2602 31009KT 9999 SKC QNH2985INS TEMPO 2422/2501 31012G18KT BECMG 2502/2503 VRB06KT 9999 FEW250 QNH2986INS BECMG 2512/2513 VRB06KT 3200 BR BKN005 QNH2989INS BECMG 2515/2516 VRB06KT 9999 NSW FEW010 QNH2992INS BECMG 2518/2519 31009KT 9999 SKC QNH2989INS TEMPO 2522/2601 31012G18KT TX29/2422Z TN13/2513Z
NOTAMs
Click for the latest NOTAMs
NOTAMs are issued by the DoD/FAA and will open in a separate window not controlled by AirNav.

 

 
 

FBO, Fuel Providers, and Aircraft Ground Support

  
 Business Name 
 
 Contact 
 
 Services / Description 
 
Fuel Prices
 
Comments
  
Redlands Aviation 909-794-5642
no information available

If you are affiliated with Redlands Aviation and would like to show here your services, contact info, web link, logo, and more, click here
100LL
SS $4.79 
 Updated 21-Sep-2018
 
   write
SS=Self service
Update Fuel Prices
 

Would you like to see your business listed on this page?

 If your business provides an interesting product or service to pilots, flight crews, aircraft, or users of the Redlands Municipal Airport, you should consider listing it here.  To start the listing process, click on the button below
 
Add a business
 

Other Pages about Redlands Municipal Airport

www.ci.redlands.ca.us/...
 
Update a link
 
Copyright © AirNav, LLC. All rights reserved. Privacy Policy  Contact